User: anonymous   Login
Location: Caltech
(34.1382°N, 118.1253°W)
Time: 18:20:56
(UTC-07:00)
Language:

CZ-4B DEB - Orbit

View from above orbital plane
View from above orbital plane
View from above satellite
View from above satellite

Ground track
Ground track

The orbit data is extracted from the following two-line orbital elements,

1 27433U 02024D   15143.85094925  .00000240  00000-0  15529-3 0  9994
2 27433 098.8716 109.9302 0015412 029.0290 331.1735 14.11895751670579
Epoch (UTC): 23 May 2015 20:25:22
Eccentricity: 0.0015412
inclination: 98.8716°
perigee height: 842 km
apogee height: 864 km
right ascension of ascending node: 109.9302°
argument of perigee: 29.0290°
revolutions per day: 14.11895751
mean anomaly at epoch: 331.1735°
orbit number at epoch: 67057

The dashed part of the orbit path shows where the satellite is in the earth's shadow,  

DLR